Weather History for Danville, IL

Change the Weather History Date:

Wednesday, November 21, 2012

  Actual Average (KLAF) Record (KLAF)
Temperature  
Mean Temperature 47 °F 40 °F  
Max Temperature 60 °F 48 °F 66 °F (2010)
Min Temperature 34 °F 32 °F 10 °F (1964)
Degree Days  
Heating Degree Days 18 25  
Month to date heating degree days 423  
Since 1 July heating degree days 857  
Cooling Degree Days 0 0  
Month to date cooling degree days 0  
Year to date cooling degree days 982  
Moisture  
Dew Point 42 °F    
Average Humidity 87    
Maximum Humidity 100    
Minimum Humidity 59    
Precipitation  
Precipitation 0.00 in 0.10 in 2.42 in (2007)
Month to date precipitation 2.05  
Year to date precipitation 33.15  
Sea Level Pressure  
Sea Level Pressure 30.18 in    
Wind  
Wind Speed 2 mph (South)    
Max Wind Speed 7 mph    
Max Gust Speed -    
Visibility 3 miles    
Events Fog    
T = Trace of Precipitation, MM = Missing Value Source: NWS Daily Summary

Daily Weather History Graph

Daily Weather History Graph

Search for Another Location

Airport:

Trip Planner

Search our weather history database for the weather conditions in past years. The results will help you decide how hot, cold, wet, or windy it might be!

Date:

Astronomy

Nov. 21, 2012 Rise Set
Actual Time 6:43 AM CST 4:29 PM CST
Civil Twilight 6:13 AM CST 4:58 PM CST
Nautical Twilight 5:40 AM CST 5:31 PM CST
Astronomical Twilight 5:08 AM CST 6:04 PM CST
Moon 12:45 PM CST 12:01 AM CST
Length of Visible Light 10h 44m
Length of Day
9h 45m
First Quarter, 62% of the Moon is Illuminated
Nov 21
First Quarter
Nov 28
Full
Dec 6
Last Quarter
Dec 13
New
Dec 19
First Quarter

Hourly Weather History & Observations

Time (CST) Temp. Windchill Dew Point Humidity Pressure Visibility Wind Dir Wind Speed Gust Speed Precip Events Conditions
12:15 AM 46.2 °F 45.0 °F 43.7 °F 91% 30.15 in 4.0 mi NE 3.5 mph - N/A   Mist
12:35 AM 46.4 °F - 44.6 °F 93% 30.15 in 4.0 mi Calm Calm - N/A   Mist
12:55 AM 42.4 °F - 40.6 °F 93% 30.15 in 3.0 mi Calm Calm - N/A   Mist
1:15 AM 43.2 °F - 41.9 °F 95% 30.15 in 2.0 mi Calm Calm - N/A   Clear
1:35 AM 41.2 °F - 40.1 °F 96% 30.16 in 1.5 mi Calm Calm - N/A   Mist
1:55 AM 39.6 °F 37.4 °F 38.5 °F 96% 30.16 in 0.5 mi North 3.5 mph - N/A Fog Fog
2:15 AM 40.1 °F 36.9 °F 39.4 °F 97% 30.17 in 0.2 mi North 4.6 mph - N/A Fog Fog
2:35 AM 39.2 °F - 38.5 °F 97% 30.17 in 0.2 mi Calm Calm - N/A Fog Fog
2:55 AM 37.4 °F - 36.9 °F 98% 30.17 in 0.2 mi Calm Calm - N/A Fog Fog
3:15 AM 37.4 °F 34.9 °F 36.9 °F 98% 30.17 in 0.2 mi NNW 3.5 mph - N/A Fog Fog
3:35 AM 36.9 °F - 36.5 °F 99% 30.18 in 0.2 mi Calm Calm - N/A Fog Fog
3:55 AM 36.5 °F - 36.1 °F 99% 30.18 in 0.2 mi Calm Calm - N/A Fog Fog
4:15 AM 36.5 °F - 36.1 °F 99% 30.18 in 0.2 mi Calm Calm - N/A Fog Fog
4:35 AM 35.4 °F - 35.1 °F 99% 30.18 in 0.2 mi Calm Calm - N/A Fog Fog
4:55 AM 35.6 °F - 35.6 °F 100% 30.19 in 0.2 mi Calm Calm - N/A Fog Fog
5:15 AM 34.9 °F - 34.7 °F 99% 30.19 in 0.2 mi Calm Calm - N/A Fog Fog
5:35 AM 34.7 °F - 34.5 °F 99% 30.19 in 0.2 mi Calm Calm - N/A Fog Fog
5:55 AM 34.5 °F - 34.2 °F 99% 30.20 in 0.2 mi Calm Calm - N/A Fog Fog
6:15 AM 34.3 °F - 34.2 °F 99% 30.20 in 0.2 mi Calm Calm - N/A Fog Fog
6:35 AM 34.2 °F - 34.0 °F 99% 30.20 in 0.2 mi Calm Calm - N/A Fog Fog
6:55 AM 34.0 °F - 33.8 °F 99% 30.21 in 0.2 mi Calm Calm - N/A Fog Fog
7:15 AM 34.2 °F - 34.0 °F 99% 30.22 in 0.2 mi Calm Calm - N/A Fog Fog
7:35 AM 36.0 °F - 35.8 °F 99% 30.23 in 0.2 mi Calm Calm - N/A Fog Fog
7:55 AM 36.7 °F - 36.5 °F 99% 30.23 in 0.2 mi Calm Calm - N/A Fog Fog
8:15 AM 37.0 °F - 36.7 °F 99% 30.23 in 0.2 mi Calm Calm - N/A Fog Fog
8:35 AM 37.6 °F - 37.4 °F 99% 30.23 in 0.2 mi Calm Calm - N/A Fog Fog
8:55 AM 39.2 °F - 38.8 °F 99% 30.23 in 0.2 mi Calm Calm - N/A Fog Fog
9:15 AM 40.6 °F - 40.1 °F 98% 30.24 in 0.2 mi Calm Calm - N/A Fog Fog
9:35 AM 42.1 °F - 41.7 °F 99% 30.24 in 0.2 mi Calm Calm - N/A Fog Fog
9:55 AM 43.7 °F - 43.0 °F 97% 30.25 in 0.2 mi Calm Calm - N/A Fog Fog
10:15 AM 44.8 °F - 44.2 °F 98% 30.24 in 0.2 mi Calm Calm - N/A Fog Fog
10:35 AM 46.9 °F - 46.4 °F 98% 30.24 in 2.0 mi SSE 3.5 mph - N/A   Mostly Cloudy
10:55 AM 48.7 °F - 48.2 °F 98% 30.23 in 4.0 mi SSE 3.5 mph - N/A   Clear
11:15 AM 50.4 °F - 49.3 °F 96% 30.23 in 4.0 mi South 4.6 mph - N/A   Mist
11:35 AM 52.3 °F - 48.7 °F 88% 30.22 in 4.0 mi South 3.5 mph - N/A   Mist
11:55 AM 55.2 °F - 48.2 °F 77% 30.21 in 4.0 mi SE 4.6 mph - N/A   Haze
12:15 PM 56.1 °F - 46.9 °F 71% 30.20 in 4.0 mi SSW 3.5 mph - N/A   Haze
12:35 PM 57.7 °F - 46.9 °F 67% 30.20 in 5.0 mi South 3.5 mph - N/A   Haze
12:55 PM 59.0 °F - 47.7 °F 66% 30.19 in 4.0 mi SSE 3.5 mph - N/A   Haze
1:15 PM 58.8 °F - 47.3 °F 66% 30.19 in 5.0 mi SSW 4.6 mph - N/A   Haze
1:35 PM 59.9 °F - 47.1 °F 63% 30.18 in 5.0 mi WSW 5.8 mph - N/A   Haze
1:55 PM 60.8 °F - 46.4 °F 59% 30.18 in 5.0 mi Calm Calm - N/A   Haze
2:15 PM 60.1 °F - 46.8 °F 61% 30.17 in 5.0 mi SW 5.8 mph - N/A   Haze
2:35 PM 60.4 °F - 46.6 °F 60% 30.17 in 5.0 mi WSW 4.6 mph - N/A   Haze
2:55 PM 60.8 °F - 46.9 °F 60% 30.16 in 5.0 mi Calm Calm - N/A   Haze
3:15 PM 60.3 °F - 46.8 °F 61% 30.17 in 5.0 mi SW 4.6 mph - N/A   Haze
3:35 PM 59.5 °F - 46.9 °F 63% 30.16 in 5.0 mi SSW 6.9 mph - N/A   Haze
3:55 PM 57.7 °F - 46.6 °F 66% 30.16 in 5.0 mi SSW 5.8 mph - N/A   Haze
4:15 PM 55.4 °F - 45.9 °F 70% 30.16 in 5.0 mi South 5.8 mph - N/A   Haze
4:35 PM 55.6 °F - 46.4 °F 71% 30.16 in 5.0 mi South 4.6 mph - N/A   Haze
4:55 PM 55.4 °F - 45.9 °F 70% 30.16 in 7.0 mi South 4.6 mph - N/A   Clear
5:15 PM 54.5 °F - 45.5 °F 72% 30.15 in 7.0 mi South 4.6 mph - N/A   Clear
5:35 PM 53.1 °F - 45.3 °F 75% 30.16 in 5.0 mi SSE 4.6 mph - N/A   Haze
5:55 PM 50.4 °F - 44.4 °F 80% 30.16 in 7.0 mi Calm Calm - N/A   Clear
6:15 PM 49.5 °F - 44.1 °F 82% 30.16 in 7.0 mi SSE 3.5 mph - N/A   Clear
6:35 PM 48.9 °F - 43.7 °F 82% 30.15 in 5.0 mi SSE 4.6 mph - N/A   Haze
6:55 PM 50.7 °F - 44.6 °F 80% 30.15 in 5.0 mi South 5.8 mph - N/A   Haze
7:15 PM 47.8 °F - 43.5 °F 85% 30.15 in 5.0 mi South 5.8 mph - N/A   Clear
7:35 PM 48.9 °F - 43.5 °F 82% 30.15 in 5.0 mi South 4.6 mph - N/A   Haze
7:55 PM 47.8 °F - 43.7 °F 86% 30.15 in 5.0 mi Calm Calm - N/A   Clear
8:15 PM 46.0 °F - 42.6 °F 88% 30.15 in 5.0 mi Calm Calm - N/A   Clear
8:35 PM 46.8 °F - 43.7 °F 89% 30.15 in 4.0 mi Calm Calm - N/A   Mist
8:55 PM 46.8 °F - 43.3 °F 88% 30.16 in 4.0 mi SSW 3.5 mph - N/A   Mist
9:15 PM 45.1 °F 43.7 °F 42.6 °F 91% 30.16 in 4.0 mi South 3.5 mph - N/A   Mist
9:35 PM 44.6 °F 43.1 °F 41.9 °F 90% 30.15 in 4.0 mi South 3.5 mph - N/A   Clear
9:55 PM 45.0 °F 43.5 °F 42.4 °F 91% 30.16 in 4.0 mi SSW 3.5 mph - N/A   Clear
10:15 PM 44.8 °F 43.3 °F 42.4 °F 91% 30.15 in 4.0 mi South 3.5 mph - N/A   Clear
10:35 PM 43.9 °F 42.3 °F 42.1 °F 93% 30.15 in 2.5 mi SSW 3.5 mph - N/A   Clear
10:55 PM 44.2 °F 42.7 °F 42.4 °F 93% 30.15 in 3.0 mi South 3.5 mph - N/A   Clear
11:15 PM 43.7 °F - 41.9 °F 93% 30.15 in 3.0 mi Calm Calm - N/A   Clear
11:35 PM 43.9 °F - 42.6 °F 95% 30.14 in 2.5 mi Calm Calm - N/A   Clear
11:55 PM 43.7 °F 42.1 °F 42.3 °F 95% 30.14 in 2.0 mi South 3.5 mph - N/A   Clear